Regional Weather Roundup
Issued by NWS Cleveland, OH

Home | Current Version | Previous Version | Graphics & Text | Print | Product List | Glossary On
Versions: 1 2 3 4 5 6 7 8 9 10 11 12 13 14 15 16 17 18 19 20 21 22 23 24 25 26 27 28 29 30 31 32 33 34 35 36 37 38 39 40 41 42 43 44 45 46 47 48 49 50
000
ASUS41 KCLE 231300
RWRCLE
OHIO REGIONAL WEATHER ROUNDUP
NATIONAL WEATHER SERVICE WILMINGTON, OH
900 AM EDT SUN APR 23 2017

NOTE: "FAIR" INDICATES FEW OR NO CLOUDS BELOW 12,000 FEET WITH NO
SIGNIFICANT WEATHER AND/OR OBSTRUCTIONS TO VISIBILITY.

OHZ001>008-015>018-024>027-034-035-043-044-231400-
   NORTHWEST OHIO

CITY           SKY/WX    TMP DP  RH WIND       PRES   REMARKS
DEFIANCE       FAIR      47  37  68 NE5       30.15S
FINDLAY        FAIR      50  34  54 NE8       30.12S
TOLEDO EXPRESS FAIR      48  36  63 CALM      30.15S
TOLEDO EXEC    FAIR      50  38  63 N5        30.16R
LIMA           FAIR      47  37  68 NE8       30.11S
$$

OHZ009>014-019>023-028>033-038-089-231400-
   NORTHEAST OHIO

CITY           SKY/WX    TMP DP  RH WIND       PRES   REMARKS
CLE-HOPKINS    FAIR      52  34  50 SE8       30.16S
CLE-LAKEFRONT  FAIR      52  33  48 SE6       30.13S
CUY CO. ARPT   SUNNY     52  34  50 SE7       30.15R
LORAIN-ELYRIA  FAIR      47  35  63 S5        30.14S
ASHTABULA      FAIR      46  40  79 S7        30.15S
AKRON-CANTON   FAIR      48  34  58 E13       30.13R
WOOSTER        FAIR      46  36  68 E8        30.13S
MANSFIELD      FAIR      47  35  63 E8        30.12S
YOUNGSTOWN     FAIR      47  36  65 E8        30.15R
$$

OHZ042-051>053-060>062-070>072-077>081-231400-
  SOUTHWEST OHIO

CITY           SKY/WX    TMP DP  RH WIND       PRES   REMARKS
CINC-COVINGTON FAIR      48  37  65 NE14      30.01F
CINC-LUNKEN    FAIR      50  40  68 NE7       30.05S
HAMILTON       FAIR      49  38  65 NE9       30.06R
DAYTON         NOT AVBL
WRIGHT-PAT AFB FAIR      49  37  63 NE12      30.06F
DAYTON GENERAL FAIR      48  35  60 NE13G22   30.04S
WILMINGTON     FAIR      45  39  79 NE13      30.04R
$$

OHZ036-037-039>041-045>050-054>059-063>069-073>076-082>088-231400-
  CENTRAL AND SOUTHEAST OHIO

CITY           SKY/WX    TMP DP  RH WIND       PRES   REMARKS
COLUMBUS       FAIR      49  37  63 NE14      30.07S
OSU AIRPORT    FAIR      48  38  68 NE10      30.08S
BOLTON FIELD   SUNNY     46  37  71 NE12      30.08R
RICKENBACK AFB NOT AVBL
NEWARK         FAIR      48  35  60 NE8       30.08S
MARION         FAIR      49  36  61 E9        30.11F
LANCASTER      FAIR      50  39  66 NE7       30.06S
ZANESVILLE     FAIR      48  36  63 NE8       30.07F
NEW PHILLY     FAIR      46  36  68 NE6       30.13R
$$



USA.gov is the U.S. government's official web portal to all federal, state and local government web resources and services.